User: anonymous   Login
Location: Unspecified
(0.0000°N, 0.0000°E)
Time: 11:54:59
(UTC+00:00)
Language:

N. Korean satellite - Orbit

View from above orbital plane
View from above orbital plane
View from above satellite
View from above satellite

Ground track
Ground track

The orbit data is extracted from the following two-line orbital elements,

1 39026U 12072A   21022.75568905  .00001481  00000-0  53449-4 0  9997
2 39026  97.2358  19.3237 0036227 180.8211 179.2976 15.29472965450754
Epoch (UTC): 22 January 2021 18:08:11
Eccentricity: 0.0036227
inclination: 97.2358°
perigee height: 452 km
apogee height: 502 km
right ascension of ascending node: 19.3237°
argument of perigee: 180.8211°
revolutions per day: 15.29472965
mean anomaly at epoch: 179.2976°
orbit number at epoch: 45075

The dashed part of the orbit path shows where the satellite is in the earth's shadow,  

DLR